Lake Istokpoga Weather Center

Moon Phase Calendar



Lake Istokpoga Water Level
Online Cameras

 


      

Current Conditions in Highlands
8/8/2022 4:15:15 AM

74°F
Feels Like 75
Clear
Humidity
95%
Pressure
30.12"
Wind
4.6 mph (N)
Dew Point
72°F
UV Index
0/10 (Low)
Visibility
6 mi

Hourly Forecast

Date & Time Mon, Aug 8
4:00 AM
Mon, Aug 8
5:00 AM
Mon, Aug 8
6:00 AM
Mon, Aug 8
7:00 AM
Mon, Aug 8
8:00 AM
Mon, Aug 8
9:00 AM
Mon, Aug 8
10:00 AM
Mon, Aug 8
11:00 AM
Mon, Aug 8
12:00 PM
Mon, Aug 8
1:00 PM
Mon, Aug 8
2:00 PM
Mon, Aug 8
3:00 PM
Mon, Aug 8
4:00 PM
Mon, Aug 8
5:00 PM
Mon, Aug 8
6:00 PM
Mon, Aug 8
7:00 PM
Mon, Aug 8
8:00 PM
Mon, Aug 8
9:00 PM
Mon, Aug 8
10:00 PM
Mon, Aug 8
11:00 PM
Tue, Aug 9
12:00 AM
Tue, Aug 9
1:00 AM
Tue, Aug 9
2:00 AM
Tue, Aug 9
3:00 AM
Tue, Aug 9
4:00 AM
Tue, Aug 9
5:00 AM
Tue, Aug 9
6:00 AM
Tue, Aug 9
7:00 AM
Tue, Aug 9
8:00 AM
Tue, Aug 9
9:00 AM
Tue, Aug 9
10:00 AM
Tue, Aug 9
11:00 AM
Tue, Aug 9
12:00 PM
Tue, Aug 9
1:00 PM
Tue, Aug 9
2:00 PM
Tue, Aug 9
3:00 PM
Tue, Aug 9
4:00 PM
Tue, Aug 9
5:00 PM
Tue, Aug 9
6:00 PM
Tue, Aug 9
7:00 PM
Tue, Aug 9
8:00 PM
Tue, Aug 9
9:00 PM
Tue, Aug 9
10:00 PM
Tue, Aug 9
11:00 PM
Wed, Aug 10
12:00 AM
Wed, Aug 10
1:00 AM
Wed, Aug 10
2:00 AM
Wed, Aug 10
3:00 AM
Condition
Rain

Clouds

Clouds

Rain

Clouds

Clouds

Clouds

Clouds

Clouds

Rain

Clouds

Clouds

Clouds

Clouds

Clouds

Clouds

Rain

Clouds

Rain

Rain

Rain

Clouds

Clouds

Clouds

Clouds

Clouds

Clouds

Clouds

Clouds

Clouds

Clouds

Clouds

Clouds

Clouds

Clouds

Clouds

Clouds

Clouds

Clouds

Clouds

Rain

Rain

Rain

Rain

Rain

Clouds

Clouds

Clouds
Temperature 74°F74°F74°F75°F77°F81°F85°F88°F90°F92°F91°F92°F93°F93°F90°F88°F84°F82°F78°F77°F76°F76°F76°F76°F75°F75°F75°F75°F78°F81°F85°F88°F91°F93°F94°F95°F96°F96°F92°F90°F84°F81°F79°F78°F78°F78°F77°F77°F
Feels Like 75°F76°F76°F76°F78°F86°F90°F93°F96°F98°F97°F97°F97°F97°F95°F94°F89°F86°F80°F78°F78°F78°F78°F77°F77°F76°F77°F77°F79°F88°F93°F96°F98°F99°F99°F99°F99°F98°F96°F95°F90°F85°F79°F80°F80°F80°F79°F78°F
Cloudiness 0%20%38%55%74%100%91%79%74%74%78%99%99%99%99%93%91%50%46%38%35%48%57%100%100%100%98%95%96%97%98%99%99%99%99%100%100%97%97%88%79%97%99%99%99%99%98%64%
Visibility 6 mi6 mi6 mi6 mi6 mi6 mi6 mi6 mi6 mi6 mi6 mi6 mi6 mi6 mi6 mi6 mi6 mi6 mi6 mi6 mi6 mi6 mi6 mi6 mi6 mi6 mi6 mi6 mi6 mi6 mi6 mi6 mi6 mi6 mi6 mi6 mi6 mi6 mi6 mi6 mi6 mi6 mi6 mi6 mi6 mi6 mi6 mi6 mi
Precipitation 36%50%55%51%47%7%9%7%11%23%23%13%7%7%6%2%27%65%75%83%83%79%79%4%2%2%2%0%0%0%0%6%14%8%2%8%8%8%18%27%39%63%73%77%75%73%71%0%
Humidity 95%94%93%93%87%75%65%57%51%48%49%47%44%43%50%56%63%70%81%88%89%88%89%89%90%92%93%94%90%81%71%61%54%49%44%40%38%37%44%52%69%78%84%87%88%90%92%94%
Dew Point 72°F72°F72°F72°F72°F72°F72°F71°F70°F70°F69°F69°F68°F67°F69°F70°F70°F71°F72°F73°F73°F73°F72°F72°F72°F72°F73°F73°F74°F75°F74°F73°F72°F71°F69°F67°F66°F65°F67°F70°F72°F73°F74°F74°F74°F75°F75°F75°F
Pressure 30.12"30.12"30.09"30.09"30.09"30.09"30.09"30.09"30.09"30.06"30.06"30.03"30.03"30"30"30"30.03"30.03"30.06"30.09"30.09"30.09"30.09"30.06"30.06"30.06"30.06"30.09"30.09"30.12"30.12"30.12"30.12"30.09"30.09"30.06"30.06"30.03"30.03"30"30.06"30.09"30.12"30.12"30.12"30.12"30.09"30.12"
Wind Speed 5.3 mph5.3 mph5.6 mph5.6 mph5.6 mph7.6 mph8.3 mph8.6 mph8.8 mph10.6 mph11.7 mph9.5 mph8.1 mph8.1 mph9.8 mph11.3 mph12.5 mph12.2 mph7.9 mph5.8 mph5 mph5 mph6.1 mph6.4 mph6.6 mph5.9 mph5.5 mph5.4 mph4.5 mph7 mph7.7 mph8.9 mph10.9 mph11.1 mph10 mph9.2 mph9.9 mph11.1 mph9.4 mph10.9 mph12.6 mph10.6 mph8.3 mph7.2 mph6.7 mph6.1 mph6.2 mph6.1 mph
Wind
Direction
75°
ENE
75°
ENE
78°
ENE
83°
E
92°
E
103°
ESE
111°
ESE
114°
ESE
113°
ESE
115°
ESE
113°
ESE
108°
ESE
104°
ESE
93°
E
85°
E
82°
E
89°
E
90°
E
103°
ESE
110°
ESE
116°
ESE
117°
ESE
113°
ESE
113°
ESE
112°
ESE
114°
ESE
115°
ESE
116°
ESE
118°
ESE
125°
SE
129°
SE
128°
SE
131°
SE
133°
SE
130°
SE
131°
SE
137°
SE
138°
SE
120°
ESE
116°
ESE
88°
E
96°
E
96°
E
117°
ESE
125°
SE
120°
ESE
125°
SE
130°
SE

Daily Forecast

Date High Low Precip. Humidity
Today
Aug 8

Rain
93 °F
74 °F
83%
48%
Tuesday
Aug 9

Rain
96 °F
75 °F
83%
49%
Wednesday
Aug 10

Rain
96 °F
76 °F
71%
38%
Thursday
Aug 11

Clouds
96 °F
76 °F
9%
37%
Friday
Aug 12

Rain
97 °F
75 °F
76%
38%
Saturday
Aug 13

Rain
93 °F
75 °F
100%
42%
Sunday
Aug 14

Rain
91 °F
72 °F
100%
46%
Monday
Aug 15

Rain
91 °F
70 °F
100%
48%
Tuesday
Aug 16

Rain
87 °F
71 °F
97%
53%
Wednesday
Aug 17

Rain
94 °F
73 °F
100%
48%
Thursday
Aug 18

Rain
91 °F
74 °F
100%
50%
Friday
Aug 19

Rain
88 °F
73 °F
100%
59%
Saturday
Aug 20

Rain
94 °F
76 °F
48%
47%
Sunday
Aug 21

Rain
94 °F
77 °F
50%
47%
Monday
Aug 22

Clouds
94 °F
78 °F
30%
47%
Tuesday
Aug 23

Clear
94 °F
78 °F
17%
47%

Temperature 8-14 Day Outlook



Precipitation 8-14 Day Outlook




Quick Links
Lake Istokpoga News
Lake Istokpoga Photos
Lake Istokpoga Videos




About Us
Contact Us
Site Map
Search Site
Advertise With Us
   
Istokpoga.LakesOnline.com
THE LAKE ISTOKPOGA WEBSITE

Copyright 2022, Lakes Online
Privacy    |    Legal